STARLINK-2243 (48013 NORAD) Tracking and Keplerian Element Data

This shows tracking and keplerian element data for the satellite.

Feedback or suggestion? Click here.




ElementValue
Catalog48013
NameSTARLINK-2243
Epoch Orbit198
Epoch Day173.91668981
Epoch Year2021
RAAN114.2766
Inclination53.0449
Eccentricity0.0001919
Argument of Perigee35.0083
Mean Anonmoly123.3307
Mean Motion15.73018656
Decay Rate0.00325054
L11 48013U 21024AN 21173.91668981 .00325054 00000-0 22489-2 0 9993
L22 48013 53.0449 114.2766 0001919 35.0083 123.3307 15.73018656 1988

Live tracking and technical data element details for STARLINK-2243 (NORAD 48013). STARLINK-2243 can be tracked NOW for your location showing map with azimuth and elevation plus other details from your city location.

Track the satellite on the map from your city or location and see movement details for azimuth, elevation, latitude, longitude, range, height, and movement on the map or in text.







IsCatalogInMostPopularTable: catalog: 48013, numindb: 43
Update: records affected: 1



GetName: 48013 STARLINK-2243

Hit Count: updated at: Thu, 24 Jun 2021 03:48:32 GMT